EW6866 Weather Reports


time (UTC)temp
C
wind
direction
speed
KPH
gust
KPH
rain 1hr
cm
rain 24hr
cm
rain mn
cm
humidity
%
barometer
mb
20260510201525 27 245 0.0 1.6 0.00 0.00 0.00 58 1012.3
20260510200005 27 257 0.0 4.8 0.00 0.00 0.00 54 1012.6
20260510194505 28 282 0.0 3.2 0.00 0.00 0.00 55 1012.8
20260510193005 30 159 0.0 3.2 0.00 0.00 0.00 50 1012.9
20260510191505 29 267 0.0 3.2 0.00 0.00 0.00 52 1012.9
20260510190025 29 286 0.0 3.2 0.00 0.00 0.00 47 1013.1
20260510184504 28 20 0.0 1.6 0.00 0.00 0.00 49 1013.1
20260510183004 28 269 1.6 6.4 0.00 0.00 0.00 46 1013.1
20260510181505 28 223 0.0 4.8 0.00 0.00 0.00 47 1013.2
20260510180005 28 234 1.6 6.4 0.00 0.00 0.00 41 1013.4
20260510174526 28 262 1.6 8.0 0.00 0.00 0.00 45 1013.6
20260510173026 28 275 0.0 6.4 0.00 0.00 0.00 41 1013.6
20260510171504 27 263 1.6 6.4 0.00 0.00 0.00 46 1013.6
20260510170004 27 264 0.0 8.0 0.00 0.00 0.00 50 1013.8
20260510164504 27 263 1.6 8.0 0.00 0.00 0.00 56 1013.9
20260510163005 27 270 1.6 4.8 0.00 0.00 0.00 58 1013.8
20260510161504 26 245 1.6 9.7 0.00 0.00 0.00 59 1013.9
20260510160025 26 269 1.6 8.0 0.00 0.00 0.00 60 1014.0
20260510154504 27 181 0.0 6.4 0.00 0.00 0.00 62 1013.9
20260510153004 26 78 0.0 1.6 0.00 0.00 0.00 57 1014.0
20260510151525 26 70 0.0 1.6 0.00 0.00 0.00 62 1014.1
20260510150004 25 72 0.0 3.2 0.00 0.00 0.00 62 1014.2
20260510144504 25 68 0.0 1.6 0.00 0.00 0.00 72 1014.2
20260510143004 25 160 0.0 3.2 0.00 0.00 0.00 73 1014.0
20260510141504 23 178 0.0 3.2 0.00 0.00 0.00 77 1013.8
20260510140004 23 167 0.0 3.2 0.00 0.00 0.00 81 1013.7
20260510134503 22 171 0.0 3.2 0.00 0.00 0.00 85 1013.7
20260510133004 21 177 0.0 4.8 0.00 0.00 0.00 88 1013.7
20260510131504 20 138 0.0 4.8 0.00 0.00 0.00 93 1013.7
20260510130005 20 167 0.0 4.8 0.00 0.00 0.00 96 1013.6
20260510124503 19 151 0.0 3.2 0.00 0.00 0.00 98 1013.3
20260510123004 19 0 0.0 0.0 0.00 0.00 0.00 98 1013.2
20260510121504 18 135 0.0 1.6 0.00 0.00 0.00 98 1013.1
20260510120004 18 0 0.0 0.0 0.00 0.00 0.00 98 1012.9
20260510114503 18 0 0.0 0.0 0.00 0.00 0.00 99 1012.8
20260510113004 17 0 0.0 0.0 0.00 0.00 0.00 98 1012.8
20260510111504 17 0 0.0 0.0 0.00 0.00 0.00 98 1012.6
20260510110005 17 0 0.0 0.0 0.00 0.00 0.00 98 1012.5
20260510104503 16 0 0.0 0.0 0.00 0.00 0.00 97 1012.2
20260510103003 17 0 0.0 0.0 0.00 0.00 0.00 98 1012.0
20260510101504 16 0 0.0 0.0 0.00 0.00 0.00 97 1011.7
20260510100004 16 0 0.0 0.0 0.00 0.00 0.00 97 1011.6
20260510094504 16 0 0.0 0.0 0.00 0.00 0.00 97 1011.4
20260510093004 17 0 0.0 0.0 0.00 0.00 0.00 97 1011.2
20260510091503 17 0 0.0 0.0 0.00 0.00 0.00 97 1011.2
20260510090004 17 0 0.0 0.0 0.00 0.00 0.00 97 1011.0
20260510084503 17 0 0.0 0.0 0.00 0.00 0.00 97 1011.0
20260510083004 16 0 0.0 0.0 0.00 0.00 0.00 97 1010.9
20260510081504 16 0 0.0 0.0 0.00 0.00 0.00 96 1010.9
20260510080004 17 0 0.0 0.0 0.00 0.00 0.00 97 1010.9
20260510074505 17 0 0.0 0.0 0.00 0.00 0.00 96 1010.9
20260510073005 17 0 0.0 0.0 0.00 0.00 0.00 96 1010.8
20260510071506 17 0 0.0 0.0 0.00 0.00 0.00 97 1010.6
20260510070005 17 0 0.0 0.0 0.00 0.00 0.00 96 1010.6
20260510064505 17 0 0.0 0.0 0.00 0.00 0.00 96 1010.6
20260510063006 17 0 0.0 0.0 0.00 0.00 0.00 96 1010.6
20260510061505 17 0 0.0 0.0 0.00 0.00 0.00 96 1010.7
20260510060006 17 0 0.0 0.0 0.00 0.00 0.00 95 1010.7
20260510054526 17 0 0.0 0.0 0.00 0.00 0.00 95 1010.9
20260510053005 17 0 0.0 0.0 0.00 0.00 0.00 95 1011.0
20260510051505 17 0 0.0 0.0 0.00 0.00 0.00 95 1011.2
20260510050006 17 0 0.0 0.0 0.00 0.00 0.00 94 1011.1
20260510044505 17 0 0.0 0.0 0.00 0.00 0.00 94 1011.1
20260510043005 17 0 0.0 0.0 0.00 0.00 0.00 93 1010.9
20260510041505 17 0 0.0 0.0 0.00 0.00 0.00 92 1010.8
20260510040006 17 0 0.0 0.0 0.00 0.00 0.00 92 1010.8
20260510034506 17 0 0.0 0.0 0.00 0.00 0.00 92 1010.7
20260510033026 17 0 0.0 0.0 0.00 0.00 0.00 91 1010.6
20260510031504 17 0 0.0 0.0 0.00 0.00 0.00 91 1010.4
20260510030005 17 0 0.0 0.0 0.00 0.00 0.00 90 1010.5
20260510024505 17 0 0.0 0.0 0.00 0.00 0.00 90 1010.4
20260510023005 17 0 0.0 0.0 0.00 0.00 0.00 90 1010.3
20260510021506 17 0 0.0 0.0 0.00 0.00 0.00 89 1010.4
20260510020005 18 0 0.0 0.0 0.00 0.00 0.00 89 1010.3
20260510014505 18 0 0.0 0.0 0.00 0.00 0.00 88 1010.2
20260510013005 18 0 0.0 0.0 0.00 0.00 0.00 87 1010.2
20260510011505 18 0 0.0 0.0 0.00 0.00 0.00 86 1010.3
20260510010005 19 0 0.0 0.0 0.00 0.00 0.00 85 1010.1
20260510004505 20 0 0.0 0.0 0.00 0.00 0.00 83 1009.9
20260510003005 20 0 0.0 0.0 0.00 0.00 0.00 82 1009.5
20260510001504 20 0 0.0 0.0 0.00 0.00 0.00 81 1009.6
20260510000005 21 0 0.0 0.0 0.00 0.00 0.00 79 1009.6
20260509234505 21 0 0.0 0.0 0.00 0.00 0.00 77 1009.4
20260509233005 22 0 0.0 0.0 0.00 0.00 0.00 75 1009.2
20260509231504 22 0 0.0 0.0 0.00 0.00 0.00 74 1009.3
20260509230004 22 163 0.0 1.6 0.00 0.00 0.00 72 1009.3
20260509224525 23 135 0.0 1.6 0.00 0.00 0.00 70 1009.2
20260509223005 23 166 1.6 8.0 0.00 0.00 0.00 69 1009.3
20260509221526 23 136 0.0 4.8 0.00 0.00 0.00 68 1009.2
20260509220005 23 239 0.0 1.6 0.00 0.00 0.00 66 1009.2
20260509214504 23 219 0.0 1.6 0.00 0.00 0.00 66 1009.1
20260509213005 23 279 0.0 4.8 0.00 0.00 0.00 65 1008.9
20260509211504 23 146 0.0 4.8 0.00 0.00 0.00 64 1009.0
20260509210005 23 215 0.0 4.8 0.00 0.00 0.00 64 1009.0
20260509204505 23 266 0.0 4.8 0.00 0.00 0.00 63 1009.1
20260509203006 24 234 1.6 4.8 0.00 0.00 0.00 60 1009.2